GW6098 Weather Reports


time (UTC)temp
F
wind
direction
speed
knots
gust
knots
rain 1hr
in
rain 24hr
in
rain mn
in
humidity
%
barometer
mb
20260506134604 49 32 0.0 0.0 0.00 0.00 0.02 98 1018.6
20260506134521 49 32 0.0 0.9 0.01 0.02 0.02 97 1017.2
20260506133317 49 32 0.0 1.7 0.02 0.02 0.02 98 1018.6
20260506133020 49 89 0.0 0.0 0.02 0.02 0.02 97 1017.2
20260506132817 49 89 0.0 0.0 0.02 0.02 0.02 98 1018.6
20260506132316 49 89 0.0 0.0 0.02 0.02 0.02 98 1018.5
20260506131817 49 89 0.0 0.0 0.01 0.01 0.01 98 1018.5
20260506131519 49 89 0.0 2.6 0.01 0.01 0.01 97 1017.1
20260506131316 49 89 0.0 2.6 0.01 0.01 0.01 98 1018.4
20260506130817 49 89 0.0 2.6 0.01 0.01 0.01 98 1018.4
20260506130317 49 109 0.0 0.9 0.01 0.01 0.01 98 1018.5
20260506130013 49 109 0.0 1.7 0.01 0.01 0.01 97 1017.1
20260506125816 49 109 0.0 1.7 0.01 0.01 0.01 98 1018.5
20260506125316 49 109 0.0 1.7 0.01 0.01 0.01 98 1018.3
20260506124816 49 109 0.0 0.9 0.01 0.01 0.01 98 1018.4
20260506124527 49 109 0.0 0.0 0.01 0.01 0.01 97 1017.1
20260506124317 49 109 0.0 0.0 0.01 0.01 0.01 98 1018.4
20260506123816 49 110 0.0 0.0 0.01 0.01 0.01 98 1018.5
20260506123319 49 110 0.0 0.0 0.00 0.00 0.00 98 1018.3
20260506123036 49 110 0.0 0.0 0.00 0.00 0.00 97 1017.1
20260506122817 49 110 0.0 0.0 0.00 0.00 0.00 97 1018.5
20260506122315 49 110 0.0 0.0 0.00 0.00 0.00 97 1018.5
20260506121815 49 110 0.0 0.0 0.00 0.00 0.00 97 1018.5
20260506121521 49 110 0.0 0.0 0.00 0.00 0.00 97 1017.0
20260506121315 49 110 0.0 0.0 0.00 0.00 0.00 98 1018.3
20260506120816 49 110 0.0 0.0 0.00 0.00 0.00 98 1018.5
20260506120316 49 110 0.0 0.0 0.00 0.00 0.00 97 1018.2
20260506120030 49 110 0.0 0.0 0.00 0.00 0.00 97 1017.0
20260506115816 49 110 0.0 0.0 0.00 0.00 0.00 97 1018.4
20260506114814 49 110 0.0 0.0 0.00 0.00 0.00 97 1018.1
20260506114520 49 110 0.0 0.0 0.00 0.00 0.00 97 1016.6
20260506114316 49 110 0.0 0.0 0.00 0.00 0.00 97 1018.1
20260506113816 49 110 0.0 0.0 0.00 0.00 0.00 97 1018.2
20260506113315 49 110 0.0 0.0 0.00 0.00 0.00 97 1018.2
20260506113034 49 110 0.0 0.0 0.00 0.00 0.00 97 1016.7
20260506112815 49 110 0.0 0.0 0.00 0.00 0.00 97 1018.1
20260506112315 49 110 0.0 0.0 0.00 0.00 0.00 97 1018.0
20260506111815 49 110 0.0 0.0 0.00 0.00 0.00 97 1018.1
20260506111527 49 110 0.0 0.0 0.00 0.00 0.00 97 1016.5
20260506111315 49 110 0.0 0.0 0.00 0.00 0.00 97 1018.0
20260506110815 49 110 0.0 0.0 0.00 0.00 0.00 97 1018.0
20260506110038 49 110 0.0 0.0 0.00 0.00 0.00 96 1016.5
20260506105815 49 110 0.0 0.0 0.00 0.00 0.00 97 1018.0
20260506105315 49 110 0.0 0.0 0.00 0.00 0.00 97 1017.9
20260506104815 49 110 0.0 0.0 0.00 0.00 0.00 97 1017.8
20260506104528 49 110 0.0 0.0 0.00 0.00 0.00 96 1016.3
20260506103315 49 110 0.0 0.0 0.00 0.00 0.00 97 1017.6
20260506103024 49 110 0.0 0.0 0.00 0.00 0.00 96 1016.0
20260506102815 49 110 0.0 0.0 0.00 0.00 0.00 97 1017.5
20260506102315 49 110 0.0 0.0 0.00 0.00 0.00 97 1017.3
20260506101816 49 110 0.0 0.0 0.00 0.00 0.00 97 1017.4
20260506101524 49 110 0.0 0.0 0.00 0.00 0.00 96 1015.9
20260506101312 49 110 0.0 0.0 0.00 0.00 0.00 97 1017.3
20260506100812 49 110 0.0 0.0 0.00 0.00 0.00 97 1017.3
20260506100312 49 110 0.0 0.0 0.00 0.00 0.00 97 1017.4
20260506100019 49 110 0.0 0.0 0.00 0.00 0.00 96 1015.9
20260506095812 49 110 0.0 0.0 0.00 0.00 0.00 97 1017.3
20260506095312 49 110 0.0 0.0 0.00 0.00 0.00 97 1017.3
20260506094811 49 110 0.0 0.0 0.00 0.00 0.00 97 1017.3
20260506094515 49 110 0.0 0.0 0.00 0.00 0.00 97 1015.8
20260506094311 49 110 0.0 0.0 0.00 0.00 0.00 97 1017.3
20260506093813 49 110 0.0 0.0 0.00 0.00 0.00 97 1017.3
20260506093009 48 110 0.0 0.0 0.00 0.00 0.00 96 1015.9
20260506092813 49 110 0.0 0.0 0.00 0.00 0.00 97 1017.5
20260506092311 49 110 0.0 0.0 0.00 0.00 0.00 97 1017.5
20260506091812 49 110 0.0 0.0 0.00 0.00 0.00 97 1017.3
20260506091505 48 110 0.0 0.0 0.00 0.00 0.00 96 1015.8
20260506091311 49 110 0.0 0.0 0.00 0.00 0.00 97 1017.3
20260506090813 49 110 0.0 0.0 0.00 0.00 0.00 97 1017.3
20260506090003 48 110 0.0 0.0 0.00 0.00 0.00 97 1015.7
20260506085811 49 110 0.0 0.0 0.00 0.00 0.00 97 1017.2
20260506085311 48 110 0.0 0.0 0.00 0.00 0.00 97 1017.2
20260506084812 48 110 0.0 0.0 0.00 0.00 0.00 97 1017.2
20260506084522 47 110 0.0 0.0 0.00 0.00 0.00 97 1015.8
20260506083813 48 110 0.0 0.0 0.00 0.00 0.00 97 1017.2
20260506083313 47 110 0.0 0.0 0.00 0.00 0.00 97 1017.1
20260506083028 47 110 0.0 0.0 0.00 0.00 0.00 97 1015.8
20260506081802 47 110 0.0 0.0 0.00 0.00 0.00 97 1017.0
20260506081517 46 110 0.0 0.0 0.00 0.00 0.00 96 1015.6
20260506081301 46 110 0.0 0.0 0.00 0.00 0.00 97 1016.9
20260506080801 46 110 0.0 0.0 0.00 0.00 0.00 97 1016.9
20260506073301 45 110 0.0 0.0 0.00 0.00 0.00 94 1016.5
20260506073024 45 110 0.0 0.0 0.00 0.00 0.00 94 1015.3
20260506072803 45 110 0.0 0.0 0.00 0.00 0.00 95 1016.5
20260506072305 45 110 0.0 0.0 0.00 0.00 0.00 95 1016.5
20260506071801 46 110 0.0 0.0 0.00 0.00 0.00 94 1016.4
20260506071523 45 110 0.0 0.0 0.00 0.00 0.00 94 1015.3
20260506071301 46 110 0.0 0.0 0.00 0.00 0.00 94 1016.4
20260506070801 46 110 0.0 0.0 0.00 0.00 0.00 95 1016.4
20260506062305 46 110 0.0 0.0 0.00 0.00 0.00 93 1016.2
20260506061803 46 110 0.0 0.0 0.00 0.00 0.00 93 1016.3
20260506061508 46 110 0.0 0.0 0.00 0.00 0.00 92 1014.9
20260506061302 46 110 0.0 0.0 0.00 0.00 0.00 93 1016.3
20260506060803 47 110 0.0 0.0 0.00 0.00 0.00 92 1016.4
20260506051302 49 110 0.0 0.0 0.00 0.00 0.00 92 1016.4
20260506050801 49 110 0.0 0.0 0.00 0.00 0.00 92 1016.4
20260506050305 49 110 0.0 0.0 0.00 0.00 0.00 92 1016.4
20260506044806 49 110 0.0 0.0 0.00 0.00 0.00 90 1016.4
20260506044512 49 100 0.0 0.0 0.00 0.00 0.00 90 1014.8
20260506044301 50 100 0.0 0.0 0.00 0.00 0.00 90 1016.3
20260506043802 50 100 0.0 0.0 0.00 0.00 0.00 90 1016.3
20260506043028 50 100 0.0 0.0 0.00 0.00 0.00 89 1014.6
20260506042555 51 100 0.0 0.0 0.00 0.00 0.00 90 1016.0
20260506042055 51 100 0.0 0.0 0.00 0.00 0.00 90 1015.9
20260506041555 51 98 0.0 0.9 0.00 0.00 0.00 90 1015.9
20260506041526 51 98 0.0 1.7 0.00 0.00 0.00 89 1014.4
20260506040055 52 98 0.0 2.6 0.00 0.00 0.00 88 1015.4
20260506040020 52 98 0.0 2.6 0.00 0.00 0.00 88 1014.1
20260506035555 52 98 0.0 2.6 0.00 0.00 0.00 88 1015.5
20260506035054 53 5 0.0 0.0 0.00 0.00 0.00 87 1015.4
20260506034555 53 5 0.0 0.0 0.00 0.00 0.00 87 1015.3
20260506034520 53 5 0.0 0.0 0.00 0.00 0.00 87 1014.0
20260506034054 53 5 0.0 0.0 0.00 0.00 0.00 87 1015.4
20260506033052 54 5 0.0 0.0 0.00 0.00 0.00 86 1015.1
20260506033023 53 5 0.0 0.0 0.00 0.00 0.00 86 1013.8
20260506031542 54 5 0.0 1.7 0.00 0.00 0.00 86 1013.7
20260506031314 55 5 0.0 0.0 0.00 0.00 0.00 86
20260506030117 55 5 0.0 0.0 0.00 0.00 0.00 85 1015.3
20260506030030 55 5 0.0 0.0 0.00 0.00 0.00 85 1013.7
20260506025616 56 5 0.0 0.0 0.00 0.00 0.00 85 1015.3
20260506024613 56 5 0.0 0.0 0.00 0.00 0.00 84 1015.3
20260506024528 56 5 0.0 0.0 0.00 0.00 0.00 84 1013.8
20260506024112 56 5 0.0 0.0 0.00 0.00 0.00 84 1015.4
20260506023610 56 5 0.0 0.0 0.00 0.00 0.00 84 1015.3
20260506023110 56 5 0.9 2.6 0.00 0.00 0.00 84 1015.3
20260506023024 56 5 0.0 2.6 0.00 0.00 0.00 84 1013.8
20260506022605 56 5 0.9 2.6 0.00 0.00 0.00 84 1015.3
20260506022106 56 5 1.7 2.6 0.00 0.00 0.00 84 1015.2
20260506021606 56 5 1.7 2.6 0.00 0.00 0.00 83 1015.3
20260506021522 56 5 0.9 2.6 0.00 0.00 0.00 83 1013.8
20260506020605 57 60 0.9 2.6 0.00 0.00 0.00 82 1015.3
20260506020106 57 77 0.9 2.6 0.00 0.00 0.00 82 1015.3
20260506020017 57 77 0.0 2.6 0.00 0.00 0.00 82 1013.8
20260506015604 57 82 0.9 2.6 0.00 0.00 0.00 82 1015.5
20260506015105 57 88 0.9 4.3 0.00 0.00 0.00 82 1015.4
20260506014604 57 9 1.7 4.3 0.00 0.00 0.00 83 1015.6
20260506014530 57 36 0.9 4.3 0.00 0.00 0.00 82 1013.8
20260506014104 57 19 2.6 4.3 0.00 0.00 0.00 82 1015.4
20260506013558 58 349 1.7 4.3 0.00 0.00 0.00 82 1015.4
20260506013100 58 350 2.6 4.3 0.00 0.00 0.00 82 1015.4
20260506013026 57 350 1.7 4.3 0.00 0.00 0.00 81 1013.9
20260506012557 58 347 1.7 4.3 0.00 0.00 0.00 82 1015.6
20260506012057 58 0 0.9 4.3 0.00 0.00 0.00 82 1015.4
20260506011556 58 39 0.9 3.5 0.00 0.00 0.00 83 1015.4
20260506011527 58 34 0.0 3.5 0.00 0.00 0.00 82 1013.9
20260506011057 58 40 1.7 5.2 0.00 0.00 0.00 82 1015.4
20260506010551 58 355 2.6 5.2 0.00 0.00 0.00 82 1015.6
20260506010051 58 350 2.6 4.3 0.00 0.00 0.00 82 1015.4
20260506010011 58 348 1.7 4.3 0.00 0.00 0.00 81 1014.0
20260506005550 58 315 2.6 4.3 0.00 0.00 0.00 81 1015.4
20260506005050 58 351 2.6 7.0 0.00 0.00 0.00 81 1015.5
20260506004506 58 36 1.7 7.0 0.00 0.00 0.00 81 1014.0
20260506004046 58 0 2.6 6.1 0.00 0.00 0.00 83 1015.5
20260506003047 58 5 2.6 5.2 0.00 0.00 0.00 82 1015.5
20260506003006 58 350 2.6 4.3 0.00 0.00 0.00 82 1014.1
20260506002550 58 355 2.6 4.3 0.00 0.00 0.00 83 1015.5
20260506002047 58 351 1.7 4.3 0.00 0.00 0.00 83 1015.5
20260506001548 58 355 1.7 4.3 0.00 0.00 0.00 82 1015.7
20260506001508 58 360 1.7 4.3 0.00 0.00 0.00 81 1014.1
20260506001048 58 32 1.7 3.5 0.00 0.00 0.00 82 1015.7
20260506000550 58 80 1.7 4.3 0.00 0.00 0.00 83 1015.6
20260506000047 58 355 2.6 4.3 0.00 0.00 0.00 83 1015.8
20260506000013 57 11 1.7 4.3 0.00 0.00 0.00 82 1014.2
20260505235548 58 22 2.6 0.9 0.00 0.00 0.00 83 1015.7
20260505234510 57 346 1.7 5.2 0.00 0.00 0.00 83 1014.3
20260505234423 58 9 2.6 5.2 0.00 0.00 0.00 83 1016.2
20260505233832 57 14 2.6 4.3 0.00 0.00 0.00 83 1016.3
20260505233018 58 5 2.6 4.3 0.00 0.00 0.00 84 1016.3
20260505233008 57 355 1.7 4.3 0.00 0.00 0.00 83 1014.4
20260505232518 57 336 2.6 5.2 0.00 0.00 0.00 84 1016.2
20260505232017 57 20 2.6 5.2 0.00 0.00 0.00 84 1016.2
20260505231516 57 345 2.6 5.2 0.00 0.00 0.00 85 1016.2
20260505231512 57 345 2.6 5.2 0.00 0.00 0.00 84 1014.4
20260505231017 57 347 3.5 6.1 0.00 0.00 0.00 84 1016.2
20260505230516 57 350 2.6 7.0 0.00 0.00 0.00 85 1016.3
20260505230010 57 342 0.9 7.0 0.00 0.00 0.00 84 1014.7
20260505225518 57 14 3.5 7.0 0.00 0.00 0.00 85 1016.3
20260505224510 57 17 2.6 7.8 0.00 0.00 0.00 83 1014.8
20260505224004 57 30 3.5 7.8 0.00 0.00 0.00 84 1016.2
20260505223504 58 317 2.6 7.0 0.00 0.00 0.00 84 1016.4
20260505223010 58 5 2.6 7.8 0.00 0.00 0.00 83 1014.7
20260505222500 58 46 3.5 7.8 0.00 0.00 0.00 85 1016.2
20260505222001 58 339 2.6 5.2 0.00 0.00 0.00 83 1016.2
20260505221510 59 351 2.6 5.2 0.00 0.00 0.00 83 1014.9
20260505221500 59 351 1.7 5.2 0.00 0.00 0.00 84 1016.3
20260505220959 59 14 1.7 5.2 0.00 0.00 0.00 85 1016.5
20260505220447 58 326 1.7 5.2 0.00 0.00 0.00 85 1016.4
20260505220006 58 342 0.0 5.2 0.00 0.00 0.00 86 1015.0
20260505215947 58 342 1.7 5.2 0.00 0.00 0.00 86 1016.4
20260505215444 58 346 1.7 4.3 0.00 0.00 0.00 87 1016.5
20260505214947 57 322 2.6 5.2 0.00 0.00 0.00 86 1016.5
20260505214513 57 23 2.6 5.2 0.00 0.00 0.00 86 1015.2
20260505214444 57 311 3.5 5.2 0.00 0.00 0.00 87 1016.7
20260505213943 57 35 2.6 7.0 0.00 0.00 0.00 86 1016.6
20260505213020 58 360 2.6 5.2 0.00 0.00 0.00 86 1015.2
20260505212937 58 21 1.7 5.2 0.00 0.00 0.00 87 1016.6
20260505212435 58 331 1.7 5.2 0.00 0.00 0.00 86 1016.7
20260505211932 58 22 2.6 0.0 0.00 0.00 0.00 86 1016.6
20260505211514 58 19 1.7 4.3 0.00 0.00 0.00 86 1015.2
20260505210608 58 71 1.7 5.2 0.00 0.00 0.00 89 1016.5
20260505210106 57 5 1.7 5.2 0.00 0.00 0.00 88 1016.4
20260505210012 57 5 1.7 5.2 0.00 0.00 0.00 87 1015.1
20260505205606 58 334 1.7 3.5 0.00 0.00 0.00 89 1016.4
20260505205109 57 18 1.7 4.3 0.00 0.00 0.00 89 1016.4
20260505204606 57 355 0.9 4.3 0.00 0.00 0.00 89 1016.7
20260505204511 56 355 0.0 4.3 0.00 0.00 0.00 89 1015.2
20260505203006 56 302 1.7 3.5 0.00 0.00 0.00 90 1015.2
20260505202644 56 86 0.9 4.3 0.00 0.00 0.00 92 1016.7
20260505202141 56 322 0.9 4.3 0.00 0.00 0.00 92 1016.6
20260505201642 55 337 0.9 3.5 0.00 0.00 0.00 92 1016.6
20260505201517 55 11 0.0 2.6 0.00 0.00 0.00 92 1015.2
20260505201140 55 355 0.9 3.5 0.00 0.00 0.00 93 1016.6
20260505200140 54 355 1.7 2.6 0.00 0.00 0.00 94 1016.6
20260505200016 54 13 0.0 3.5 0.00 0.00 0.00 94 1015.2
20260505195151 54 355 1.7 0.9 0.00 0.00 0.00 94 1016.6
20260505194513 53 11 0.9 3.5 0.00 0.00 0.00 95 1015.2
20260505193820 53 0 1.7 3.5 0.00 0.00 0.00 95 1016.4
20260505193018 52 360 1.7 3.5 0.00 0.00 0.00 95 1015.2
20260505192318 53 27 0.9 3.5 0.00 0.00 0.00 96 1016.5
20260505191820 53 11 0.9 3.5 0.00 0.00 0.00 96 1016.4
20260505191515 52 17 0.0 3.5 0.00 0.00 0.00 96 1015.1
20260505191319 52 17 0.9 3.5 0.00 0.00 0.00 96 1016.3
20260505190819 52 5 0.9 2.6 0.00 0.00 0.00 97 1016.3
20260505190319 52 29 1.7 4.3 0.00 0.00 0.00 97 1016.4
20260505190025 52 349 0.9 4.3 0.00 0.00 0.00 96 1015.2
20260505185819 52 350 1.7 4.3 0.00 0.00 0.00 97 1016.4
20260505185320 52 0 0.9 2.6 0.00 0.00 0.00 97 1016.2
20260505184518 52 28 0.9 2.6 0.00 0.00 0.00 97 1015.1
20260505184318 52 22 0.9 2.6 0.00 0.00 0.00 97 1016.4
20260505183318 52 355 1.7 3.5 0.00 0.00 0.00 97 1016.5
20260505183016 51 19 0.0 3.5 0.00 0.00 0.00 96 1015.2
20260505182817 52 19 1.7 4.3 0.00 0.00 0.00 97 1016.5
20260505182318 52 0 1.7 4.3 0.00 0.00 0.00 97 1016.5
20260505181818 51 5 1.7 4.3 0.00 0.00 0.00 97 1016.4
20260505181520 51 349 1.7 3.5 0.00 0.00 0.00 97 1015.1
20260505181318 52 350 1.7 3.5 0.00 0.00 0.00 97 1016.3
20260505180019 51 349 0.9 4.3 0.00 0.00 0.00 97 1014.9
20260505175350 52 355 1.7 4.3 0.00 0.00 0.00 97 1016.2
20260505174846 52 355 1.7 3.5 0.00 0.00 0.00 97 1016.2
20260505174517 51 352 0.9 3.5 0.00 0.00 0.00 97 1014.8
20260505174348 52 0 1.7 3.5 0.00 0.00 0.00 97 1016.1
20260505173846 52 0 1.7 3.5 0.00 0.00 0.00 97 1016.1
20260505173341 52 19 0.9 3.5 0.00 0.00 0.00 97 1016.1
20260505173023 51 355 1.7 3.5 0.00 0.00 0.00 97 1014.7
20260505172835 52 344 0.9 3.5 0.00 0.00 0.00 98 1015.9
20260505172328 52 11 0.9 2.6 0.00 0.00 0.00 98 1015.9
20260505171821 52 10 0.9 2.6 0.00 0.00 0.00 98 1015.7
20260505171527 51 5 0.0 2.6 0.00 0.00 0.00 97 1014.6
20260505171326 51 5 0.9 2.6 0.00 0.00 0.00 97 1015.8
20260505170318 51 9 1.7 2.6 0.00 0.00 0.00 97 1016.1
20260505170021 51 9 0.9 2.6 0.00 0.00 0.00 97 1014.7
20260505165819 51 9 0.9 1.7 0.00 0.00 0.00 97 1016.2
20260505164600 51 5 1.7 3.5 0.00 0.00 0.00 97 1016.1
20260505164522 51 5 0.9 3.5 0.00 0.00 0.00 97 1014.8
20260505164058 51 0 1.7 3.5 0.00 0.00 0.00 97 1016.1
20260505163558 51 12 1.7 3.5 0.00 0.00 0.00 97 1016.1
20260505163059 51 5 1.7 3.5 0.00 0.00 0.00 97 1016.1
20260505163020 51 10 1.7 3.5 0.00 0.00 0.00 97 1014.6
20260505162558 51 355 0.9 2.6 0.00 0.00 0.00 97 1016.1
20260505161558 51 348 0.9 2.6 0.00 0.00 0.00 97 1016.1
20260505161515 51 360 0.9 2.6 0.00 0.00 0.00 97 1014.6
20260505161058 51 355 0.9 1.7 0.00 0.00 0.00 97 1016.0
20260505160556 51 355 0.9 1.7 0.00 0.00 0.00 97 1016.0
20260505153025 51 9 0.0 1.7 0.00 0.00 0.00 97 1014.3
20260505152928 51 9 0.0 1.7 0.00 0.00 0.00 97 1015.3
20260505152427 51 5 0.0 0.0 0.00 0.00 0.00 97 1015.4
20260505151928 51 5 0.0 0.0 0.00 0.00 0.00 97 1015.3
20260505151504 50 5 0.0 0.0 0.00 0.00 0.00 97 1014.1
20260505151429 51 5 0.0 0.0 0.00 0.00 0.00 97 1015.3
20260505150927 51 5 0.0 0.0 0.00 0.00 0.00 97 1015.6
20260505150424 51 355 0.0 0.0 0.00 0.00 0.00 97 1015.5